Home   Weather   Cuzco   Past weeks

Flag for Peru Past Weather in Cuzco, Cusco, Peru — Yesterday and Last 2 Weeks

Now
52 °F

Partly sunny.


Feels Like: 52 °F
Forecast: 44 / 64 °F
Wind: 2 mph from North

Location: Cuzco Airport

Current Time: Dec 8, 2016 at 7:17:50 pm

Latest Report: Dec 8, 2016 at 6:00 pm


Visibility: N/A

Pressure: 30.36 "Hg (20.22 "Hg at 3379m altitude)

Humidity: 77%

Dew Point: 45 °F

Location of CuzcoLocation

Past Weather in Cuzco — Graph

°F

Cuzco Temperature Yesterday

Maximum temperature yesterday: 63 °F (at 11:00 am)
Minimum temperature yesterday: 48 °F (at 12:00 am)
Average temperature yesterday: 54 °F

High & Low Weather Summary for the Past Weeks

 TemperatureHumidityPressure
High75 °F (Nov 24, 1:00 pm)88% (Dec 8, 3:00 am)30.63 "Hg (Dec 8, 3:00 am)
Low43 °F (Nov 24, 5:00 am)13% (Nov 24, 1:00 pm)30.24 "Hg (Nov 24, 4:00 pm)
Average55 °F59%30.43 "Hg
* Reported Nov 23 6:00 pm — Dec 8 6:00 pm, Cuzco, Weather by CustomWeather, © 2016

Note: Actual official high and low records may vary slightly from our data, if they occured in-between our weather recording intervals... More about our weather records

Advertising

Cuzco Weather History for the Previous 24 Hours

Scroll right to see more
 ConditionsComfort  
Time TempWeatherWind HumidityBarometerVisibility
6:00 pm
Thu, Dec 8
52 °FPartly sunny.2 mph77%30.36 "HgN/A
5:00 pm54 °FLight rain. Broken clouds.5 mph67%30.36 "Hg5 mi
4:00 pm54 °FBroken clouds.7 mph72%30.36 "HgN/A
3:00 pm52 °FPartly sunny.7 mph82%30.39 "HgN/A
2:00 pm52 °FRain. Broken clouds.6 mph77%30.42 "Hg4 mi
1:00 pm61 °FScattered showers. Broken clouds.12 mph59%30.39 "Hg6 mi
12:00 pm55 °FLight rain. Broken clouds.3 mph63%30.39 "Hg6 mi
11:00 am63 °FScattered showers. Broken clouds.7 mph42%30.39 "HgN/A
10:00 am61 °FScattered clouds.5 mph52%30.45 "HgN/A
9:00 am59 °FScattered clouds.3 mph55%30.45 "HgN/A
8:00 am55 °FScattered clouds.2 mph63%30.48 "HgN/A
7:00 am52 °FScattered clouds.5 mph77%30.45 "HgN/A
6:00 am48 °FBroken clouds.3 mph87%30.42 "HgN/A
5:00 am48 °FPartly cloudy.3 mph87%30.42 "HgN/A
4:00 am48 °FLight rain. Partly cloudy.No wind87%30.42 "HgN/A
3:00 am50 °FPartly cloudy.No wind88%30.42 "HgN/A
2:00 am50 °FLight rain. Partly cloudy.2 mph82%30.39 "HgN/A
1:00 am52 °FPartly cloudy.No wind77%30.42 "HgN/A
12:00 am50 °FPartly cloudy.5 mph82%30.45 "HgN/A
11:00 pm
Wed, Dec 7
52 °FDrizzle. Mostly cloudy.No wind77%30.45 "HgN/A
10:00 pm55 °FPartly cloudy.No wind72%30.45 "HgN/A
9:00 pm55 °FPartly cloudy.5 mph67%30.42 "HgN/A
8:00 pm54 °FPartly cloudy.No wind77%30.39 "HgN/A
7:00 pm55 °FPartly cloudy.No wind72%30.36 "HgN/A
Weather by CustomWeather, © 2016

See weather overviewHow to use our weather pages